GFSGL_700_rhum_300.txt.gz
RH
2 3 4 4 5 6 6 6 7 7 8 8 8 10 11 12 12 12 12 11 11 12 12 12 13 13 12 11 10 9 8 6 6 4 2 2 6 14 30 40 43 43 45
3 4 5 5 6 7 7 8 8 8 9 10 11 12 12 13 12 11 10 10 10 11 12 13 13 13 13 12 10 9 8 6 5 4 2 4 17 30 35 38 41 47 49
4 5 6 6 7 8 8 9 9 9 10 12 12 13 13 11 10 10 10 10 10 10 11 12 13 14 14 12 10 9 7 5 3 2 2 15 31 37 38 42 40 42 48
5 6 7 7 8 8 9 10 10 11 12 13 13 13 12 12 11 11 11 11 11 11 12 12 13 14 14 12 10 8 6 4 2 2 9 26 38 41 41 37 38 48 52
5 6 7 8 8 9 10 10 10 12 13 14 14 14 14 13 12 12 12 12 12 13 13 14 15 15 14 12 9 6 4 2 2 4 22 38 41 40 38 42 47 47 52
6 7 8 9 9 10 10 10 11 13 14 14 14 14 14 12 12 12 12 13 12 13 13 15 16 16 14 11 7 4 2 2 4 18 40 44 45 43 46 51 48 51 49
6 7 8 9 10 11 11 11 12 13 14 14 15 14 12 12 12 12 13 13 13 13 14 16 17 16 14 11 7 3 2 3 21 39 48 55 47 49 53 50 54 60 68
6 7 8 10 10 11 11 12 12 14 14 15 14 12 12 13 13 14 14 14 14 14 15 17 18 16 13 10 6 3 1 5 27 47 61 57 55 61 65 62 62 64 73
6 7 8 9 10 11 12 12 14 14 14 14 12 13 13 14 14 14 14 15 16 17 17 18 19 16 13 9 6 2 1 11 38 59 64 60 64 69 72 68 67 67 68
5 6 7 9 10 11 12 13 14 14 13 13 13 14 14 15 16 15 15 16 17 18 19 20 18 15 11 8 4 2 1 12 36 57 60 58 60 65 71 74 73 74 75
4 5 6 8 9 11 12 12 13 13 12 12 14 14 15 16 16 16 16 16 18 19 20 21 19 15 11 6 3 1 2 17 47 65 59 56 61 64 69 76 79 80 79
4 4 6 7 8 10 11 11 11 12 12 13 14 15 16 17 18 17 17 18 19 20 21 21 19 15 10 5 2 1 3 29 56 69 61 56 57 61 66 76 82 84 86
4 4 5 6 7 8 9 10 10 11 12 14 14 16 18 19 19 18 18 20 22 23 23 22 18 14 9 4 2 1 4 30 56 69 67 62 61 64 66 71 74 83 90
6 5 4 5 6 7 8 9 10 11 13 15 16 19 20 20 20 20 20 22 25 25 24 22 19 14 8 3 1 1 5 35 58 71 76 72 66 67 66 68 71 71 76
12 9 7 6 6 7 8 9 10 13 15 18 21 22 22 22 22 20 22 25 26 26 25 23 19 13 8 3 1 1 6 36 58 70 78 78 73 70 71 73 76 72 75
22 22 14 10 8 8 9 10 14 16 20 24 25 26 24 25 22 22 24 26 28 28 26 24 19 14 8 3 1 1 6 34 55 69 82 83 79 76 78 79 81 78 78
38 41 30 18 13 12 13 15 17 23 29 30 29 27 26 26 23 24 26 27 30 30 28 25 19 13 7 2 1 1 8 38 57 70 81 86 87 85 84 84 86 84 84
54 55 50 34 19 19 18 19 24 32 35 33 32 29 28 25 25 26 28 30 34 33 29 25 19 12 6 2 1 1 10 40 57 69 81 92 91 91 89 87 88 89 88
58 59 55 45 29 26 25 25 32 40 40 36 32 32 27 26 27 29 30 33 36 35 31 26 18 11 5 2 1 2 14 43 57 68 80 94 96 95 94 92 91 94 93
60 62 65 52 38 34 32 31 40 46 46 40 36 33 28 29 30 31 32 35 39 38 33 27 18 10 4 2 1 2 16 47 59 70 83 94 98 97 95 92 92 94 94
60 64 68 73 71 51 40 38 45 50 50 43 39 31 32 32 32 33 35 38 41 40 35 27 17 9 4 2 1 2 19 50 61 73 87 97 98 97 97 94 95 95 96
61 62 68 76 76 60 51 44 46 51 52 46 36 36 37 40 38 36 37 40 44 43 37 27 16 8 4 2 1 2 20 50 63 75 92 99 99 97 96 95 96 96 96
64 67 70 80 76 63 57 50 48 53 53 44 42 47 48 44 42 39 39 41 45 47 39 27 16 7 3 2 1 2 19 50 65 78 91 98 98 98 95 94 95 95 96
70 72 75 82 82 78 62 52 51 55 53 46 56 60 55 54 52 43 40 42 47 49 39 26 15 7 3 2 2 3 25 54 70 82 92 97 98 96 95 95 96 95 96
72 76 81 86 89 82 74 62 58 57 51 57 71 72 61 59 56 46 40 43 51 52 38 25 14 6 3 2 2 4 29 59 72 84 92 96 96 93 92 93 95 93 95
68 76 85 90 91 87 77 70 62 57 54 73 79 77 70 64 59 48 41 45 53 51 37 24 13 6 3 2 2 3 28 59 73 84 91 95 93 86 85 88 90 91 89

GFSGL_700_rhum_303.txt.gz
RH
1 2 2 3 4 5 5 6 6 7 8 8 9 10 12 12 12 10 9 8 7 8 8 9 9 11 12 13 13 13 11 9 8 5 3 2 4 10 24 29 31 32 41
2 2 3 4 5 6 6 7 8 8 9 9 11 12 13 13 11 10 9 8 8 9 8 8 10 11 13 13 14 13 11 8 6 5 3 3 10 22 28 29 31 39 37
2 3 4 5 6 6 7 8 9 9 9 11 13 14 13 12 11 10 9 9 9 8 8 8 9 11 13 14 14 13 10 8 5 3 2 7 21 29 27 27 36 39 43
3 4 5 6 6 7 8 8 9 9 11 13 14 14 13 13 11 10 10 10 9 9 8 8 10 12 13 14 14 12 10 6 4 2 4 16 31 28 26 30 37 44 47
4 5 6 6 7 8 9 9 10 11 13 14 14 14 14 13 11 10 11 10 10 10 10 10 11 13 14 15 14 11 8 5 3 2 9 27 33 26 28 38 45 46 56
4 5 6 7 8 9 10 10 10 12 14 14 14 14 14 12 11 12 11 11 11 11 11 11 12 14 16 16 14 9 6 4 2 4 22 36 33 30 35 46 51 51 55
4 6 7 8 9 10 10 10 11 13 14 14 15 14 12 12 12 12 12 12 12 11 11 12 13 15 16 16 13 8 4 2 2 11 33 42 35 37 41 49 55 60 68
4 6 7 8 9 10 11 11 12 13 14 14 15 13 12 12 13 13 14 13 13 12 12 12 14 16 17 17 14 8 4 2 3 22 46 50 44 47 49 56 56 59 69
5 6 7 8 10 10 11 11 12 13 14 15 14 12 12 13 14 14 15 15 14 14 14 14 16 18 18 17 14 8 4 2 6 35 54 58 54 54 56 56 56 56 58
5 6 7 8 9 10 11 12 12 14 14 14 13 12 13 14 15 16 16 16 15 16 15 16 18 19 19 17 13 8 4 2 3 32 56 64 58 55 58 59 58 60 65
4 5 6 7 8 10 11 12 12 13 13 13 12 12 13 14 16 17 17 16 16 16 16 17 19 20 20 17 12 7 3 1 5 33 52 65 64 57 58 61 67 67 69
4 4 5 6 7 8 10 11 12 12 12 12 12 13 14 15 17 18 18 17 16 17 17 17 20 22 20 16 10 5 2 1 8 34 52 65 66 60 59 62 68 70 74
4 4 4 5 6 7 8 10 10 11 11 11 11 13 14 17 19 19 20 18 17 18 19 20 22 23 20 15 8 4 2 1 8 32 50 63 70 66 66 69 71 75 75
5 5 4 4 5 6 7 8 9 9 10 10 12 14 17 20 21 21 21 18 18 20 21 24 25 24 20 14 7 3 1 1 10 34 51 66 76 76 75 73 74 72 75
8 7 6 5 4 5 6 7 8 8 9 11 14 17 21 23 23 23 22 19 21 23 24 26 26 25 20 13 6 3 1 2 14 37 52 66 80 82 82 81 78 78 77
12 12 10 8 6 5 6 6 7 8 9 14 16 23 26 26 25 26 23 22 23 24 27 28 28 26 20 13 6 2 1 2 15 38 53 67 82 87 87 88 85 83 83
18 22 21 18 14 10 7 7 8 9 13 17 25 30 29 28 28 28 23 23 25 26 29 30 30 26 20 12 5 2 1 3 18 40 53 68 83 91 92 91 89 88 87
26 28 32 32 28 20 14 10 11 13 18 24 34 34 33 30 31 27 25 26 27 29 31 33 32 27 19 11 4 2 2 3 22 45 58 73 85 90 94 93 93 91 92
38 42 46 49 48 37 20 16 17 19 22 35 39 38 35 34 31 28 28 29 30 31 32 35 34 27 19 10 4 2 2 4 25 50 63 78 90 92 93 93 95 95 96
45 47 55 56 55 49 31 23 23 23 31 42 44 43 39 36 31 31 32 33 33 33 34 37 35 27 18 9 4 2 2 5 30 56 70 86 92 93 94 93 95 95 97
46 48 56 56 50 42 37 33 32 32 39 46 50 48 44 34 34 35 38 36 34 34 36 38 36 28 18 9 4 2 2 6 33 60 77 89 92 93 95 94 95 95 96
49 52 56 60 65 67 68 65 48 40 42 47 52 51 44 37 40 42 41 39 37 36 38 40 37 27 17 8 4 2 2 7 36 64 81 88 90 91 93 94 94 94 95
51 57 59 63 67 73 77 77 65 56 46 47 53 53 44 42 47 47 48 46 40 37 39 43 36 26 15 8 3 2 2 7 38 65 81 86 88 90 91 91 92 93 94
50 57 59 59 62 67 79 82 68 60 53 50 55 54 46 52 57 53 52 47 39 37 41 44 36 25 14 7 3 2 2 6 39 66 78 84 87 87 87 87 87 88 89
52 55 60 61 64 69 77 86 79 69 59 56 58 53 52 63 66 60 55 49 43 40 42 44 36 25 14 6 3 2 2 4 38 65 76 81 84 78 80 81 81 84 85
60 61 61 65 68 74 82 87 88 78 70 64 60 53 60 72 73 68 63 55 47 41 44 45 37 26 14 7 3 2 2 4 33 64 75 79 77 72 76 76 76 77 78

GFSGL_700_rhum_306.txt.gz
RH
28 18 4 1 2 3 4 4 6 6 8 8 8 10 12 12 11 9 8 8 8 7 7 7 7 7 8 10 11 12 14 13 11 8 6 4 3 8 22 24 22 26 31
22 6 1 2 3 4 5 5 6 8 8 8 10 12 13 12 10 9 9 8 8 8 8 8 7 7 8 10 12 13 14 13 11 8 5 3 5 16 27 23 24 34 36
14 2 2 3 4 4 5 6 7 8 8 9 12 13 13 11 11 10 9 9 9 9 9 8 8 8 8 10 12 14 14 12 10 7 4 3 10 28 28 26 31 37 40
6 2 2 3 4 5 6 7 8 9 9 11 13 13 13 12 12 10 9 10 9 10 10 9 8 8 9 11 13 14 14 12 9 5 3 3 18 34 30 29 34 40 41
2 2 3 4 5 6 7 8 9 9 10 12 13 14 13 14 11 10 10 11 11 11 10 10 9 9 10 12 14 15 14 12 8 4 3 6 27 38 32 34 40 40 48
2 2 4 5 6 7 8 8 9 10 11 13 14 14 14 12 10 11 12 12 12 12 11 11 10 10 10 13 15 15 14 11 6 4 2 8 36 42 35 36 40 42 42
2 3 4 6 7 7 8 9 10 10 12 14 14 14 14 11 11 12 13 14 13 13 12 12 11 10 12 14 16 16 13 8 5 3 2 18 42 46 37 38 42 47 53
2 3 5 6 7 8 9 10 10 11 12 14 14 15 13 12 12 13 14 14 15 14 13 12 12 12 13 16 17 16 12 7 4 2 4 28 51 52 45 44 45 50 57
2 4 5 6 8 9 10 10 11 12 13 14 15 14 12 12 13 13 14 15 16 15 13 13 13 12 14 17 17 17 12 6 3 2 9 38 57 63 52 50 50 52 54
2 4 5 7 8 9 10 11 11 12 12 14 14 13 12 12 13 14 15 16 17 16 14 14 14 14 15 18 18 17 12 6 2 2 16 42 54 64 60 58 59 56 59
3 4 5 6 8 9 10 11 11 12 13 14 14 13 12 12 13 14 16 18 18 17 15 15 15 16 17 19 19 17 12 5 2 2 18 41 55 65 65 65 67 63 64
2 3 5 6 7 8 9 10 11 12 13 13 13 12 12 12 14 15 18 19 20 18 16 16 16 17 20 20 20 16 9 4 2 2 22 42 53 66 71 72 73 72 70
2 3 4 5 6 7 8 10 10 11 12 12 12 11 11 13 14 17 20 20 21 18 16 17 18 19 20 21 20 15 8 4 2 3 24 41 52 64 76 78 77 77 75
2 3 4 4 5 6 7 8 9 10 11 11 11 10 11 14 17 21 22 22 22 18 18 18 20 21 22 23 21 14 8 4 2 3 24 42 54 67 77 80 81 79 80
3 3 4 4 4 5 5 7 8 9 9 10 10 10 12 16 21 24 24 24 22 19 19 21 22 22 23 24 20 13 7 3 2 6 29 44 56 69 80 82 82 82 83
7 4 4 4 4 4 4 5 6 7 8 8 9 10 15 20 26 28 26 26 22 21 22 23 23 23 25 25 20 12 6 3 2 8 32 46 60 74 81 84 84 83 86
10 8 6 7 7 6 5 5 6 7 7 8 9 12 17 28 31 30 29 26 23 24 25 25 24 25 27 26 20 12 5 2 2 11 34 50 67 81 84 86 84 84 88
14 14 13 14 14 12 10 7 6 6 8 9 11 17 23 33 34 32 31 26 26 27 28 27 27 27 29 26 19 11 5 2 2 15 40 58 74 82 84 85 83 84 86
20 19 19 24 26 24 23 20 15 10 9 10 13 19 33 37 37 35 31 28 29 31 31 30 29 30 31 26 18 10 4 2 3 16 42 63 77 83 85 84 82 85 85
25 25 28 30 31 34 36 36 26 18 13 13 18 27 38 41 41 39 32 31 34 34 33 34 30 32 32 27 18 10 4 2 3 20 48 65 77 82 83 82 81 85 86
33 36 39 44 47 50 52 54 48 27 20 22 25 35 42 47 46 41 34 36 37 38 39 35 32 34 34 26 17 8 3 2 4 22 50 67 76 81 81 80 81 85 85
40 38 43 46 51 55 56 56 45 40 32 30 32 37 47 50 50 44 39 42 42 43 40 34 33 36 34 27 16 7 3 2 4 23 52 66 76 78 76 77 80 82 82
50 46 47 48 50 54 55 56 65 66 58 46 40 40 46 52 52 46 44 48 46 46 41 37 36 37 34 27 16 8 3 2 3 21 52 65 74 73 69 73 76 77 78
53 53 48 47 49 53 59 66 71 74 76 70 61 51 48 52 53 48 50 56 53 50 45 41 37 37 36 27 16 8 3 2 2 15 50 64 72 66 63 68 71 73 74
54 52 48 48 52 56 60 63 65 72 78 80 67 62 56 54 55 51 56 63 60 56 49 41 36 39 37 27 16 8 4 2 2 8 42 62 71 61 60 63 66 67 68
57 54 51 49 54 58 59 61 63 66 75 84 82 72 65 61 56 53 62 69 66 63 54 40 36 40 39 27 18 10 4 2 2 3 30 59 69 59 56 59 60 62 60

GFSGL_700_rhum_312.txt.gz
RH
51 51 52 42 26 28 23 5 2 3 4 4 5 6 7 10 11 11 8 8 7 8 8 8 8 9 9 9 8 8 8 11 13 14 13 12 8 5 3 8 28 26 23
55 57 44 35 32 26 12 2 2 3 4 5 6 7 9 11 12 10 9 8 8 9 9 9 9 10 10 10 9 9 9 12 12 14 13 11 7 4 3 13 31 30 26
56 47 37 33 26 21 6 2 3 4 5 6 7 7 10 12 12 10 10 8 9 10 10 10 10 10 10 10 10 10 10 11 12 14 12 10 6 3 6 21 36 35 37
51 43 38 37 25 13 2 2 4 5 6 7 7 8 10 12 11 11 10 9 10 11 11 12 12 11 11 11 11 10 10 11 14 14 13 10 5 3 7 18 36 41 43
48 43 43 40 22 4 2 3 4 5 6 7 7 8 11 13 12 12 10 10 11 12 12 12 13 12 12 12 12 11 11 12 14 13 13 9 5 3 8 25 36 46 52
46 47 49 39 15 2 2 3 5 6 6 7 7 9 12 13 12 12 10 10 11 12 13 13 13 13 13 13 13 12 11 14 15 14 12 8 4 3 12 28 38 50 52
46 51 51 30 8 2 3 4 5 6 7 7 8 10 12 13 13 13 11 11 12 12 13 14 15 14 14 14 14 13 13 15 15 14 11 6 4 3 12 29 44 60 66
49 52 50 23 4 2 3 4 6 6 7 8 8 10 13 14 14 13 11 11 12 12 14 15 16 15 15 15 15 14 15 16 15 14 10 5 3 5 18 36 48 64 77
50 52 50 16 2 2 4 5 6 7 8 8 9 10 13 14 14 14 12 12 12 12 14 17 17 16 16 16 16 15 17 17 16 13 8 4 3 7 22 38 54 65 74
48 52 51 11 2 2 4 5 6 7 8 9 9 10 12 14 14 14 12 12 12 13 15 18 18 17 17 18 16 16 18 17 16 12 6 4 4 13 31 49 61 72 78
50 55 53 10 2 3 4 6 7 8 9 9 10 10 12 13 14 14 12 12 12 14 16 17 19 18 19 19 17 19 19 18 17 13 7 3 5 18 38 56 69 77 78
51 56 53 12 2 3 4 6 7 8 9 10 10 10 11 12 14 13 12 11 12 15 19 20 20 19 20 20 20 21 19 19 17 12 6 3 7 26 46 64 74 77 75
47 55 47 12 2 3 4 6 7 8 9 10 10 10 11 12 14 13 11 10 12 16 21 23 21 21 22 22 22 21 20 19 17 10 5 3 11 34 54 68 72 73 72
36 49 38 12 2 3 4 6 7 8 9 9 10 11 12 12 13 12 10 10 13 20 24 25 23 23 24 23 25 21 21 20 17 9 4 4 16 42 58 65 68 67 70
26 40 34 16 2 2 4 5 6 7 8 9 10 11 11 12 12 11 10 10 14 22 26 26 24 25 24 26 25 22 22 21 16 8 4 4 21 47 60 65 64 64 67
22 26 26 17 6 2 3 4 5 6 7 8 8 9 10 11 11 10 9 10 16 26 28 27 26 28 27 29 24 24 24 22 15 7 3 4 23 49 62 62 61 62 66
26 27 28 21 13 5 2 3 4 4 5 6 7 7 8 9 9 9 8 10 18 28 31 29 29 29 31 30 26 25 25 22 14 6 3 5 26 50 60 57 59 61 65
28 28 29 27 21 19 8 3 3 4 4 4 5 6 7 8 8 8 8 11 23 33 36 32 32 32 34 31 29 27 26 21 12 6 3 5 25 51 56 53 56 60 64
27 28 26 27 23 32 27 14 7 5 6 6 5 5 6 7 7 8 8 14 29 38 39 34 35 36 35 33 30 28 27 20 12 6 3 4 25 51 51 48 54 58 60
33 31 29 23 29 38 32 22 15 10 10 11 11 10 8 7 7 8 11 20 36 43 42 38 38 38 38 33 30 28 28 20 12 6 3 4 20 49 47 44 52 56 56
35 40 36 26 26 34 35 25 23 19 18 18 19 18 17 14 11 10 12 24 42 47 44 42 42 42 40 34 30 28 28 20 12 7 4 3 15 46 45 40 48 52 54
32 37 46 37 31 31 32 26 25 26 28 28 33 39 36 27 18 13 17 33 46 49 48 46 47 46 43 34 28 30 27 20 14 9 4 3 10 41 45 37 43 48 49
35 40 45 47 40 36 37 29 28 30 36 44 49 45 45 35 21 22 25 38 46 50 51 49 52 52 49 35 28 30 26 21 16 11 6 3 5 27 45 35 37 43 43
45 41 45 51 52 44 37 32 33 39 46 52 52 48 45 39 42 41 36 40 43 47 52 51 55 58 56 42 29 29 26 21 18 14 9 4 3 11 40 40 33 35 37
46 46 48 52 60 54 45 37 39 44 49 54 56 56 66 66 66 65 59 54 51 50 53 53 56 63 61 53 35 30 27 24 21 17 13 7 3 3 18 42 36 31 32
48 54 55 56 61 65 60 47 43 46 51 54 60 60 68 71 70 72 73 67 62 59 57 56 57 65 67 66 51 37 30 27 26 22 17 10 6 3 4 23 43 34 30